When you browse on this site, cookies collect data to enhance your experience and personalize the content and advertising you see.
Visit our Privacy Policy to learn more. By continuing to use the site, you agree to this use of cookies and data.
  • In Romania
  • List of Countries
  • For 7 days
  • Water Temperature
  • Weather Map
  • Weather Widgets
  • user-avatar
    Login

    Hourly Weather Gribovka

    Today, 16 September, Monday

    Time Temperature Precipitation Wind Pressure Humidity
    00:00 +9°C° 0.5 mm 7 mps 739 mmHg 88%
    01:00 +9°C° 0.2 mm 7 mps 738 mmHg 86%
    02:00 +10°C° 0.2 mm 7 mps 737 mmHg 85%
    03:00 +9°C° 0 mm 7 mps 737 mmHg 83%
    04:00 +9°C° 0.1 mm 7 mps 736 mmHg 84%
    05:00 +9°C° 0.1 mm 8 mps 736 mmHg 84%
    06:00 +9°C° 0.1 mm 8 mps 735 mmHg 85%
    07:00 +10°C° 0.3 mm 9 mps 735 mmHg 85%
    08:00 +10°C° 0.3 mm 9 mps 734 mmHg 84%
    09:00 +10°C° 0.3 mm 9 mps 734 mmHg 84%
    10:00 +11°C° 0.1 mm 9 mps 734 mmHg 80%
    11:00 +12°C° 0.1 mm 10 mps 733 mmHg 77%
    12:00 +12°C° 0.1 mm 10 mps 733 mmHg 73%
    13:00 +13°C° 0.3 mm 10 mps 733 mmHg 71%
    14:00 +13°C° 0.3 mm 9 mps 733 mmHg 68%
    15:00 +13°C° 0.3 mm 9 mps 733 mmHg 66%
    16:00 +12°C° 0 mm 8 mps 733 mmHg 67%
    17:00 +12°C° 0 mm 7 mps 733 mmHg 69%
    18:00 +11°C° 0 mm 6 mps 733 mmHg 70%
    19:00 +11°C° 0 mm 6 mps 733 mmHg 73%
    20:00 +10°C° 0 mm 6 mps 733 mmHg 76%
    21:00 +9°C° 0 mm 6 mps 733 mmHg 79%
    22:00 +9°C° 0 mm 6 mps 733 mmHg 80%
    23:00 +9°C° 0 mm 6 mps 733 mmHg 81%

    Tomorrow, 17 September, Tuesday

    Time Temperature Precipitation Wind Pressure Humidity
    00:00 +8°C° 0 mm 6 mps 733 mmHg 82%
    01:00 +8°C° 0 mm 6 mps 733 mmHg 83%
    02:00 +8°C° 0 mm 6 mps 733 mmHg 85%
    03:00 +8°C° 0 mm 6 mps 733 mmHg 86%
    04:00 +8°C° 0 mm 6 mps 733 mmHg 84%
    05:00 +8°C° 0 mm 6 mps 732 mmHg 82%
    06:00 +8°C° 0 mm 6 mps 732 mmHg 80%
    07:00 +8°C° 0 mm 7 mps 732 mmHg 78%
    08:00 +9°C° 0 mm 7 mps 732 mmHg 77%
    09:00 +9°C° 0 mm 7 mps 732 mmHg 75%
    10:00 +10°C° 0.1 mm 8 mps 733 mmHg 71%
    11:00 +10°C° 0.1 mm 8 mps 733 mmHg 67%
    12:00 +11°C° 0.1 mm 8 mps 733 mmHg 64%
    13:00 +11°C° 0.1 mm 8 mps 733 mmHg 61%
    14:00 +12°C° 0.1 mm 7 mps 733 mmHg 57%
    15:00 +12°C° 0.1 mm 7 mps 733 mmHg 54%
    16:00 +11°C° 0.1 mm 6 mps 733 mmHg 59%
    17:00 +12°C° 0.1 mm 5 mps 733 mmHg 63%
    18:00 +11°C° 0.1 mm 4 mps 732 mmHg 68%
    19:00 +10°C° 0 mm 4 mps 733 mmHg 70%
    20:00 +8°C° 0 mm 4 mps 733 mmHg 73%
    21:00 +7°C° 0 mm 4 mps 733 mmHg 76%
    22:00 +7°C° 0 mm 4 mps 733 mmHg 77%
    23:00 +6°C° 0 mm 4 mps 733 mmHg 79%

    Day after tomorrow, 18 September, Wednesday

    Time Temperature Precipitation Wind Pressure Humidity
    00:00 +6°C° 0 mm 4 mps 733 mmHg 81%
    01:00 +6°C° 0 mm 4 mps 733 mmHg 84%
    02:00 +5°C° 0 mm 3 mps 732 mmHg 87%
    03:00 +5°C° 0 mm 3 mps 732 mmHg 89%
    04:00 +5°C° 0 mm 3 mps 732 mmHg 90%
    05:00 +5°C° 0 mm 3 mps 732 mmHg 91%
    06:00 +4°C° 0 mm 3 mps 732 mmHg 93%
    07:00 +7°C° 0 mm 3 mps 732 mmHg 88%
    08:00 +8°C° 0 mm 3 mps 732 mmHg 83%
    09:00 +8°C° 0 mm 4 mps 732 mmHg 77%
    10:00 +10°C° 0.2 mm 4 mps 732 mmHg 74%
    11:00 +11°C° 0.2 mm 4 mps 732 mmHg 71%
    12:00 +12°C° 0.2 mm 4 mps 732 mmHg 68%
    13:00 +12°C° 0.3 mm 4 mps 731 mmHg 68%
    14:00 +12°C° 0.3 mm 4 mps 731 mmHg 69%
    15:00 +12°C° 0.3 mm 3 mps 731 mmHg 69%
    16:00 +11°C° 0.6 mm 3 mps 731 mmHg 74%
    17:00 +10°C° 0.6 mm 3 mps 730 mmHg 78%
    18:00 +9°C° 0.6 mm 3 mps 730 mmHg 82%
    19:00 +9°C° 0.3 mm 3 mps 730 mmHg 86%
    20:00 +7°C° 0.3 mm 4 mps 730 mmHg 89%
    21:00 +6°C° 0.3 mm 4 mps 731 mmHg 93%
    22:00 +6°C° 0 mm 4 mps 731 mmHg 93%
    23:00 +6°C° 0 mm 4 mps 731 mmHg 93%

    19 September, Thursday

    Time Temperature Precipitation Wind Pressure Humidity
    00:00 +5°C° 0 mm 4 mps 731 mmHg 93%
    01:00 +5°C° 0 mm 4 mps 732 mmHg 93%
    02:00 +5°C° 0 mm 4 mps 733 mmHg 93%
    03:00 +4°C° 0 mm 4 mps 733 mmHg 93%
    04:00 +4°C° 0 mm 4 mps 734 mmHg 94%
    05:00 +4°C° 0 mm 4 mps 734 mmHg 94%
    06:00 +4°C° 0 mm 4 mps 735 mmHg 95%
    07:00 +5°C° 0 mm 4 mps 736 mmHg 93%
    08:00 +5°C° 0 mm 4 mps 736 mmHg 91%
    09:00 +6°C° 0 mm 4 mps 737 mmHg 90%
    10:00 +6°C° 0.1 mm 4 mps 738 mmHg 86%
    11:00 +7°C° 0.1 mm 5 mps 738 mmHg 82%
    12:00 +7°C° 0.1 mm 5 mps 739 mmHg 79%
    13:00 +8°C° 0.1 mm 5 mps 739 mmHg 74%
    14:00 +8°C° 0.1 mm 5 mps 739 mmHg 69%
    15:00 +9°C° 0.1 mm 5 mps 739 mmHg 65%
    16:00 +8°C° 0 mm 4 mps 740 mmHg 68%
    17:00 +8°C° 0 mm 3 mps 740 mmHg 71%
    18:00 +8°C° 0 mm 2 mps 740 mmHg 75%
    19:00 +7°C° 0 mm 2 mps 741 mmHg 78%
    20:00 +6°C° 0 mm 2 mps 741 mmHg 81%
    21:00 +5°C° 0 mm 2 mps 741 mmHg 84%
    22:00 +4°C° 0 mm 2 mps 742 mmHg 84%
    23:00 +4°C° 0 mm 2 mps 742 mmHg 85%

    20 September, Friday

    Time Temperature Precipitation Wind Pressure Humidity
    00:00 +3°C° 0 mm 2 mps 742 mmHg 86%
    01:00 +3°C° 0 mm 2 mps 742 mmHg 84%
    02:00 +3°C° 0 mm 2 mps 742 mmHg 83%
    03:00 +3°C° 0 mm 2 mps 742 mmHg 82%
    04:00 +2°C° 0 mm 2 mps 742 mmHg 83%
    05:00 +2°C° 0 mm 2 mps 742 mmHg 84%
    06:00 +1°C° 0 mm 2 mps 742 mmHg 85%
    07:00 +3°C° 0 mm 2 mps 743 mmHg 79%
    08:00 +4°C° 0 mm 2 mps 743 mmHg 73%
    09:00 +6°C° 0 mm 2 mps 743 mmHg 68%
    10:00 +7°C° 0.1 mm 2 mps 743 mmHg 63%
    11:00 +8°C° 0.1 mm 2 mps 743 mmHg 58%
    12:00 +9°C° 0.1 mm 2 mps 743 mmHg 54%
    13:00 +9°C° 0.3 mm 3 mps 743 mmHg 56%
    14:00 +9°C° 0.3 mm 3 mps 743 mmHg 58%
    15:00 +8°C° 0.3 mm 4 mps 743 mmHg 61%
    16:00 +8°C° 0.2 mm 3 mps 743 mmHg 66%
    17:00 +7°C° 0.2 mm 3 mps 743 mmHg 72%
    18:00 +6°C° 0.2 mm 2 mps 743 mmHg 77%
    19:00 +5°C° 0 mm 2 mps 743 mmHg 79%
    20:00 +4°C° 0 mm 2 mps 744 mmHg 80%
    21:00 +3°C° 0 mm 2 mps 744 mmHg 81%
    22:00 +3°C° 0 mm 2 mps 744 mmHg 83%
    23:00 +2°C° 0 mm 2 mps 744 mmHg 85%

    21 September, Saturday

    Time Temperature Precipitation Wind Pressure Humidity
    00:00 +1°C° 0 mm 3 mps 744 mmHg 86%
    01:00 0°C° 0 mm 3 mps 744 mmHg 88%
    02:00 0°C° 0 mm 3 mps 744 mmHg 90%
    03:00 0°C° 0 mm 3 mps 745 mmHg 91%
    04:00 -1°C° 0 mm 2 mps 745 mmHg 91%
    05:00 -1°C° 0 mm 2 mps 745 mmHg 91%
    06:00 -1°C° 0 mm 2 mps 745 mmHg 90%
    07:00 +1°C° 0 mm 2 mps 745 mmHg 85%
    08:00 +2°C° 0 mm 3 mps 746 mmHg 79%
    09:00 +3°C° 0 mm 3 mps 746 mmHg 73%
    10:00 +4°C° 0 mm 3 mps 746 mmHg 67%
    11:00 +5°C° 0 mm 3 mps 746 mmHg 60%
    12:00 +7°C° 0 mm 4 mps 746 mmHg 53%
    13:00 +7°C° 0.2 mm 4 mps 746 mmHg 53%
    14:00 +7°C° 0.2 mm 4 mps 746 mmHg 53%
    15:00 +7°C° 0.2 mm 4 mps 746 mmHg 54%
    16:00 +7°C° 0.1 mm 3 mps 746 mmHg 59%
    17:00 +5°C° 0.1 mm 3 mps 746 mmHg 64%
    18:00 +6°C° 0.1 mm 2 mps 746 mmHg 69%
    19:00 +5°C° 0 mm 2 mps 747 mmHg 71%
    20:00 +3°C° 0 mm 3 mps 747 mmHg 74%
    21:00 +2°C° 0 mm 3 mps 748 mmHg 76%
    22:00 +1°C° 0 mm 3 mps 748 mmHg 76%
    23:00 +1°C° 0 mm 3 mps 748 mmHg 77%
    Show more